Powrót do katalogu

STARLINK-34158

AktywnyŁącznośćVLEO
NORAD 63996·PAYLOAD·🇺🇸 United States

Wystrzelony May 14, 2025 z Cape Canaveral Space Force Station

Loading…

Następne Przeloty (najbliższe 24 godziny)

TLE

ŚwieżeSource: CelesTrak SupGP

Epoka: Sep 14, 2026, 21:25 UTC

1 63996C 25101C   26257.89284722  .00015217  00000+0  55114-3 0  2577
2 63996  43.0037   9.3332 0001555 277.3886  66.0243 15.27571910    19

Śledź STARLINK-34158 w czasie rzeczywistym z AllMySat

Download on the App Store